Location: Baumgarten
(49.0970°N, 12.7493°E)
Time: 08:33:59
(UTC+00:00)

Cosmos 1766 Rocket - Pass Details

Date: 05 July 2020
Orbit: 606 x 632 km, 82.5° (Epoch: 04 August)

Event Time Altitude Azimuth Distance (km) Brightness Sun altitude
Exits shadow 22:44:23 37° 189° (S) 962 4.0 -17.9°
Maximum altitude 22:46:05 89° 273° (W) 625 3.5 -18.0°
Drops below altitude 10° 22:50:32 10° 10° (N) 2,001 7.3 -18.1°
Sets 22:52:47 0° 10° (N) 2,916 8.5 -18.1°
